This is the latest recevied weather packets stored in our database for station/object KI4MRC. If no packets are shown the sender has not sent any weather packets the latest 10 day(s).
| Time | Temp. | Humidity | Pressure | Rain* | Wind** | Luminosity | Snow |
|---|---|---|---|---|---|---|---|
| 1778078637 | 30° C | 68% | 1017 hPa | 0 mm | - | 693 W/m² | - |
| 1778078336 | 30° C | 70% | 1017.3 hPa | 0 mm | - | 639 W/m² | - |
| 1778078032 | 30° C | 68% | 1017.2 hPa | 0 mm | - | 706 W/m² | - |
| 1778077731 | 30° C | 69% | 1017 hPa | 0 mm | - | 625 W/m² | - |
| 1778077428 | 29.44° C | 70% | 1017.1 hPa | 0 mm | - | 744 W/m² | - |
| 1778077126 | 28.89° C | 72% | 1017 hPa | 0 mm | - | 700 W/m² | - |
| 1778076824 | 28.89° C | 72% | 1017 hPa | 0 mm | - | 660 W/m² | - |
| 1778076522 | 28.89° C | 72% | 1017 hPa | 0 mm | - | 502 W/m² | - |
| 1778076219 | 28.89° C | 71% | 1017 hPa | 0 mm | - | 561 W/m² | - |
| 1778075916 | 28.89° C | 74% | 1016.9 hPa | 0 mm | - | 485 W/m² | - |
| 1778075612 | 28.89° C | 75% | 1016.7 hPa | 0 mm | - | 378 W/m² | - |
| 1778075309 | 28.89° C | 73% | 1016.8 hPa | 0 mm | - | 397 W/m² | - |
| 1778075005 | 28.33° C | 77% | 1016.8 hPa | 0 mm | - | 554 W/m² | - |
| 1778074702 | 28.33° C | 74% | 1016.7 hPa | 0 mm | - | 460 W/m² | - |
| 1778074399 | 27.78° C | 77% | 1016.8 hPa | 0 mm | - | 444 W/m² | - |
| 1778074096 | 27.78° C | 77% | 1016.5 hPa | 0 mm | - | 309 W/m² | - |
| 1778073793 | 27.78° C | 76% | 1016.7 hPa | 0 mm | - | 213 W/m² | - |
| 1778073491 | 27.78° C | 76% | 1016.7 hPa | 0 mm | - | 349 W/m² | - |
| 1778073187 | 27.22° C | 78% | 1016.7 hPa | 0 mm | - | 256 W/m² | - |
| 1778072884 | 27.22° C | 79% | 1016.7 hPa | 0 mm | - | 263 W/m² | - |
| 1778072580 | 26.67° C | 79% | 1016.5 hPa | 0 mm | - | 335 W/m² | - |
| 1778072279 | 26.67° C | 82% | 1016.6 hPa | 0 mm | - | 291 W/m² | - |
| 1778071976 | 26.11° C | 85% | 1016.6 hPa | 0 mm | - | 260 W/m² | - |
| 1778071674 | 25.56° C | 86% | 1016.6 hPa | 0 mm | - | 114 W/m² | - |
| 1778071372 | 25.56° C | 89% | 1016.5 hPa | 0 mm | - | 121 W/m² | - |
* Rain latest hour (hover to see other rain measurements)
** Current wind speed in m/s (hover to see current wind gust speed)